Location: Unspecified
(0.0000°N, 0.0000°E)
Time: 18:24:41
(UTC+00:00)

Courier 1B Rocket - Pass Details

Date: 08 October 2020
Orbit: 921 x 1202 km, 28.2° (Epoch: 27 October)

Event Time Altitude Azimuth Distance (km) Brightness Sun altitude
Rises 13:04:49 0° 262° (W) 3,591 8.2 69.7°
Reaches altitude 10° 13:08:25 10° 242° (WSW) 2,684 7.8 68.9°
Maximum altitude 13:12:26 17° 203° (SSW) 2,269 7.4 67.9°
Drops below altitude 10° 13:16:37 10° 164° (SSE) 2,798 7.6 66.9°
Sets 13:20:31 0° 145° (SE) 3,812 8.0 66.0°
